Location: Aressy
(43.2833°N, 0.3167°W)
Time: 21:26:57
(UTC+00:00)

Cosmos 2082 Rocket - Pass Details

Date: 28 January 2021
Orbit: 832 x 854 km, 71.0° (Epoch: 03 March)

Event Time Altitude Azimuth Distance (km) Brightness Sun altitude
Rises 19:21:05 0° 332° (NNW) 3,433 5.7 -24.2°
Reaches altitude 10° 19:23:34 10° 331° (NNW) 2,491 5.0 -24.7°
Maximum altitude 19:29:15 69° 249° (WSW) 911 2.4 -25.7°
Enters shadow 19:33:21 19° 170° (S) 1,907 3.9 -26.5°
